BAW733 LSZH-EGLL

Flight info

Callsign BAW733
Flight time 1h 16m
Altitude 36000
Route DCT VEBIT T10 TORPA DCT REKLA DCT RLP DCT ROTSI DCT KOTUN DCT NINAL DCT ABNUR DCT DIMAL DCT ALESO DCT
Aircraft A319/M-SDE3FGIJ1KRWXY/LB1

Departure

Time 2026-05-04 14:17
Airport Zürich Airport (LSZH)

Arrival

Time 2026-05-04 15:34
Airport London Heathrow Airport (EGLL)
Time Latitude Longitude Altitude Speed Heading
2026-05-04 13:51 47.45431 8.55691 1407 ft 0 kts 186°
2026-05-04 14:08 47.45444 8.55693 1407 ft 3 kts 186°
2026-05-04 14:08 47.45463 8.55696 1407 ft 3 kts 186°
2026-05-04 14:08 47.45482 8.55699 1409 ft 3 kts 186°
2026-05-04 14:09 47.45504 8.55688 1407 ft 0 kts 99°
2026-05-04 14:11 47.45503 8.55708 1407 ft 4 kts 90°
2026-05-04 14:12 47.45504 8.55764 1411 ft 7 kts 86°
2026-05-04 14:12 47.45538 8.55827 1413 ft 10 kts 27°
2026-05-04 14:12 47.45628 8.55984 1410 ft 13 kts 94°
2026-05-04 14:13 47.45617 8.56127 1414 ft 15 kts 96°
2026-05-04 14:13 47.45606 8.56280 1415 ft 16 kts 96°
2026-05-04 14:13 47.45595 8.56443 1416 ft 17 kts 96°
2026-05-04 14:13 47.45582 8.56612 1421 ft 16 kts 96°
2026-05-04 14:14 47.45570 8.56782 1420 ft 17 kts 96°
2026-05-04 14:14 47.45591 8.57011 1423 ft 6 kts 24°
2026-05-04 14:14 47.45621 8.57019 1425 ft 3 kts
2026-05-04 14:15 47.45662 8.56987 1425 ft 5 kts 300°
2026-05-04 14:15 47.45666 8.56967 1424 ft 0 kts 279°
2026-05-04 14:16 47.45666 8.56966 1424 ft 1 kts 279°
2026-05-04 14:16 47.45681 8.56765 1420 ft 48 kts 276°
2026-05-04 14:17 47.45835 8.54635 1406 ft 156 kts 276°
2026-05-04 14:17 47.45934 8.53061 1989 ft 150 kts 275°
2026-05-04 14:17 47.46157 8.49932 3033 ft 161 kts 277°
2026-05-04 14:18 47.46212 8.48159 3336 ft 186 kts 261°
2026-05-04 14:18 47.44139 8.45260 4016 ft 238 kts 218°
2026-05-04 14:19 47.41867 8.41183 5374 ft 273 kts 236°
2026-05-04 14:19 47.40796 8.38825 6367 ft 278 kts 236°
2026-05-04 14:19 47.39726 8.36431 7372 ft 282 kts 236°
2026-05-04 14:19 47.38684 8.33958 8299 ft 287 kts 243°
2026-05-04 14:20 47.37787 8.31308 9206 ft 291 kts 243°
2026-05-04 14:20 47.36856 8.28629 10099 ft 295 kts 242°
2026-05-04 14:20 47.35893 8.25906 10731 ft 309 kts 242°
2026-05-04 14:21 47.33764 8.19952 11647 ft 339 kts 241°
2026-05-04 14:21 47.32671 8.16901 12409 ft 342 kts 241°
2026-05-04 14:21 47.31559 8.13789 13169 ft 345 kts 241°
2026-05-04 14:21 47.30436 8.10645 13896 ft 348 kts 241°
2026-05-04 14:22 47.29309 8.07478 14602 ft 351 kts 241°
2026-05-04 14:22 47.28202 8.04256 15283 ft 355 kts 246°
2026-05-04 14:22 47.27474 8.00769 15947 ft 359 kts 258°
2026-05-04 14:22 47.27271 7.97084 16608 ft 364 kts 270°
2026-05-04 14:23 47.27931 7.89621 17944 ft 371 kts 277°
2026-05-04 14:23 47.28296 7.85840 18590 ft 374 kts 277°
2026-05-04 14:23 47.28657 7.82032 19221 ft 378 kts 276°
2026-05-04 14:24 47.29019 7.78184 19845 ft 381 kts 276°
2026-05-04 14:24 47.29383 7.74297 20462 ft 384 kts 276°
2026-05-04 14:24 47.29748 7.70384 21065 ft 387 kts 276°
2026-05-04 14:24 47.30116 7.66438 21632 ft 390 kts 276°
2026-05-04 14:25 47.30573 7.62479 22164 ft 395 kts 282°
2026-05-04 14:25 47.32248 7.54679 23223 ft 402 kts 286°
2026-05-04 14:25 47.33111 7.50743 23727 ft 405 kts 286°
2026-05-04 14:26 47.33962 7.46848 24190 ft 408 kts 286°
2026-05-04 14:26 47.34831 7.42846 24667 ft 410 kts 286°
2026-05-04 14:26 47.35280 7.40775 24908 ft 412 kts 286°
2026-05-04 14:26 47.36154 7.36725 25380 ft 414 kts 285°
2026-05-04 14:27 47.37028 7.32656 25836 ft 417 kts 285°
2026-05-04 14:27 47.37904 7.28563 26290 ft 419 kts 285°
2026-05-04 14:27 47.38782 7.24452 26727 ft 422 kts 285°
2026-05-04 14:27 47.39664 7.20318 27153 ft 424 kts 285°
2026-05-04 14:28 47.40540 7.16203 27576 ft 426 kts 284°
2026-05-04 14:28 47.41235 7.11948 27980 ft 427 kts 280°
2026-05-04 14:28 47.41873 7.07651 28391 ft 430 kts 280°
2026-05-04 14:28 47.42513 7.03329 28794 ft 432 kts 280°
2026-05-04 14:29 47.43792 6.94621 29545 ft 436 kts 280°
2026-05-04 14:29 47.45070 6.85827 30268 ft 440 kts 280°
2026-05-04 14:30 47.45710 6.81387 30605 ft 442 kts 280°
2026-05-04 14:30 47.46351 6.76940 30948 ft 444 kts 280°
2026-05-04 14:30 47.47639 6.67969 31625 ft 446 kts 279°
2026-05-04 14:31 47.48121 6.63452 32072 ft 443 kts 274°
2026-05-04 14:31 47.48768 6.54429 32957 ft 440 kts 274°
2026-05-04 14:32 47.49417 6.45456 33845 ft 437 kts 274°
2026-05-04 14:32 47.49734 6.40989 34291 ft 435 kts 274°
2026-05-04 14:32 47.50050 6.36549 34719 ft 434 kts 274°
2026-05-04 14:32 47.50366 6.32106 35116 ft 434 kts 274°
2026-05-04 14:33 47.50678 6.27662 35488 ft 433 kts 274°
2026-05-04 14:33 47.50985 6.23234 35834 ft 433 kts 273°
2026-05-04 14:33 47.51288 6.18799 36001 ft 433 kts 274°
2026-05-04 14:34 47.51887 6.09968 36026 ft 430 kts 273°
2026-05-04 14:34 47.52479 6.01172 36026 ft 429 kts 273°
2026-05-04 14:35 47.53091 5.92368 36025 ft 431 kts 277°
2026-05-04 14:35 47.54968 5.83998 36026 ft 437 kts 296°
2026-05-04 14:36 47.58701 5.76845 36025 ft 442 kts 310°
2026-05-04 14:36 47.62875 5.70140 36021 ft 442 kts 310°
2026-05-04 14:37 47.67026 5.63402 36014 ft 442 kts 309°
2026-05-04 14:37 47.71177 5.56661 36008 ft 442 kts 309°
2026-05-04 14:38 47.75326 5.49919 36010 ft 442 kts 309°
2026-05-04 14:38 47.78780 5.44309 36009 ft 443 kts 309°
2026-05-04 14:39 47.83609 5.36433 36014 ft 443 kts 309°
2026-05-04 14:39 47.87756 5.29643 36012 ft 443 kts 309°
2026-05-04 14:40 47.93270 5.20590 36002 ft 443 kts 309°
2026-05-04 14:40 47.97413 5.13774 35994 ft 443 kts 309°
2026-05-04 14:41 48.01552 5.06944 35981 ft 443 kts 309°
2026-05-04 14:42 48.09819 4.93248 35968 ft 444 kts 309°
2026-05-04 14:42 48.13959 4.86367 35968 ft 444 kts 309°
2026-05-04 14:43 48.18088 4.79471 35969 ft 444 kts 309°
2026-05-04 14:43 48.22216 4.72576 35970 ft 444 kts 309°
2026-05-04 14:44 48.26311 4.65711 35965 ft 444 kts 309°
2026-05-04 14:44 48.30439 4.58787 35966 ft 445 kts 309°
2026-05-04 14:45 48.34559 4.51848 35967 ft 445 kts 309°
2026-05-04 14:45 48.38676 4.44885 35967 ft 445 kts 309°
2026-05-04 14:46 48.42785 4.37914 35963 ft 446 kts 308°
2026-05-04 14:46 48.46905 4.30917 35963 ft 446 kts 309°
2026-05-04 14:47 48.51020 4.23917 35963 ft 446 kts 308°
2026-05-04 14:47 48.55126 4.16904 35966 ft 446 kts 308°
2026-05-04 14:48 48.59228 4.09876 35962 ft 446 kts 308°
2026-05-04 14:48 48.63308 4.02890 35961 ft 446 kts 308°
2026-05-04 14:49 48.67408 3.95835 35960 ft 446 kts 308°
2026-05-04 14:49 48.71501 3.88758 35956 ft 447 kts 308°
2026-05-04 14:50 48.75748 3.81853 35957 ft 449 kts 312°
2026-05-04 14:50 48.80266 3.75276 35960 ft 450 kts 314°
2026-05-04 14:51 48.84807 3.68739 35960 ft 449 kts 313°
2026-05-04 14:51 48.89282 3.62118 35959 ft 449 kts 313°
2026-05-04 14:52 48.93687 3.55466 35959 ft 449 kts 312°
2026-05-04 14:52 48.98116 3.48760 35960 ft 449 kts 312°
2026-05-04 14:53 49.02555 3.42075 35967 ft 449 kts 313°
2026-05-04 14:53 49.06997 3.35377 35964 ft 449 kts 313°
2026-05-04 14:54 49.11429 3.28670 35963 ft 449 kts 313°
2026-05-04 14:54 49.15858 3.21943 35961 ft 449 kts 312°
2026-05-04 14:55 49.20278 3.15202 35960 ft 448 kts 312°
2026-05-04 14:55 49.24691 3.08458 35957 ft 449 kts 312°
2026-05-04 14:56 49.29104 3.01698 35956 ft 449 kts 312°
2026-05-04 14:56 49.33518 2.94923 35958 ft 449 kts 312°
2026-05-04 14:57 49.37922 2.88131 35959 ft 449 kts 312°
2026-05-04 14:57 49.42301 2.81376 35961 ft 449 kts 312°
2026-05-04 14:58 49.46710 2.74564 35962 ft 449 kts 312°
2026-05-04 14:58 49.51109 2.67737 35963 ft 449 kts 312°
2026-05-04 14:59 49.55512 2.60886 35963 ft 450 kts 312°
2026-05-04 15:00 49.62324 2.50949 35955 ft 452 kts 321°
2026-05-04 15:00 49.67345 2.45087 35959 ft 452 kts 321°
2026-05-04 15:01 49.74860 2.36254 35958 ft 452 kts 320°
2026-05-04 15:01 49.79860 2.30345 35956 ft 452 kts 320°
2026-05-04 15:02 49.84815 2.24476 35954 ft 452 kts 320°
2026-05-04 15:02 49.89807 2.18567 35951 ft 451 kts 320°
2026-05-04 15:03 49.94745 2.12703 35953 ft 451 kts 320°
2026-05-04 15:03 49.98658 2.08022 35958 ft 451 kts 320°
2026-05-04 15:04 50.03635 2.02078 35956 ft 452 kts 320°
2026-05-04 15:04 50.08618 1.96125 35960 ft 452 kts 320°
2026-05-04 15:05 50.13594 1.90140 35962 ft 452 kts 320°
2026-05-04 15:05 50.18432 1.83915 35964 ft 450 kts 313°
2026-05-04 15:06 50.22913 1.77093 35966 ft 450 kts 314°
2026-05-04 15:07 50.29625 1.66844 35847 ft 450 kts 314°
2026-05-04 15:07 50.31831 1.63467 35597 ft 450 kts 314°
2026-05-04 15:07 50.34075 1.60029 34911 ft 453 kts 313°
2026-05-04 15:07 50.36337 1.56552 34080 ft 458 kts 313°
2026-05-04 15:08 50.38619 1.53041 33116 ft 464 kts 313°
2026-05-04 15:08 50.40937 1.49471 32151 ft 469 kts 313°
2026-05-04 15:08 50.43249 1.45910 31665 ft 462 kts 313°
2026-05-04 15:08 50.45526 1.42398 31071 ft 457 kts 313°
2026-05-04 15:09 50.47787 1.38911 30493 ft 453 kts 313°
2026-05-04 15:09 50.50010 1.35460 29928 ft 447 kts 312°
2026-05-04 15:09 50.52163 1.31962 29360 ft 442 kts 311°
2026-05-04 15:10 50.56276 1.24921 28255 ft 432 kts 310°
2026-05-04 15:10 50.58283 1.21435 27704 ft 427 kts 311°
2026-05-04 15:10 50.62370 1.14768 26643 ft 419 kts 313°
2026-05-04 15:11 50.64431 1.11560 26122 ft 414 kts 314°
2026-05-04 15:11 50.66483 1.08393 25613 ft 410 kts 314°
2026-05-04 15:11 50.68476 1.05301 25143 ft 406 kts 314°
2026-05-04 15:11 50.70468 1.02180 24661 ft 402 kts 313°
2026-05-04 15:12 50.72431 0.99073 24200 ft 398 kts 313°
2026-05-04 15:12 50.74375 0.95979 23748 ft 394 kts 313°
2026-05-04 15:12 50.76291 0.92920 23307 ft 390 kts 313°
2026-05-04 15:12 50.78187 0.89890 22866 ft 385 kts 313°
2026-05-04 15:13 50.80064 0.86889 22430 ft 381 kts 313°
2026-05-04 15:13 50.81913 0.83927 21991 ft 377 kts 313°
2026-05-04 15:13 50.83231 0.81815 21664 ft 374 kts 314°
2026-05-04 15:13 50.85052 0.78898 21205 ft 370 kts 313°
2026-05-04 15:14 50.86851 0.76012 20746 ft 367 kts 314°
2026-05-04 15:14 50.88635 0.73147 20276 ft 363 kts 314°
2026-05-04 15:14 50.90403 0.70307 19809 ft 360 kts 314°
2026-05-04 15:14 50.92132 0.67527 19327 ft 357 kts 314°
2026-05-04 15:15 50.93867 0.64734 18856 ft 354 kts 314°
2026-05-04 15:15 50.95591 0.61959 18371 ft 352 kts 314°
2026-05-04 15:15 50.97301 0.59203 17892 ft 349 kts 314°
2026-05-04 15:16 51.00753 0.53619 16812 ft 354 kts 314°
2026-05-04 15:16 51.02472 0.50829 16275 ft 353 kts 314°
2026-05-04 15:16 51.05881 0.45291 15217 ft 348 kts 314°
2026-05-04 15:17 51.07579 0.42549 14690 ft 346 kts 315°
2026-05-04 15:17 51.11021 0.37267 13654 ft 342 kts 316°
2026-05-04 15:17 51.12745 0.34677 13144 ft 339 kts 316°
2026-05-04 15:18 51.14448 0.32111 12786 ft 332 kts 316°
2026-05-04 15:18 51.16089 0.29625 12656 ft 319 kts 316°
2026-05-04 15:18 51.17663 0.27228 12524 ft 308 kts 315°
2026-05-04 15:19 51.20701 0.22577 11872 ft 301 kts 315°
2026-05-04 15:19 51.22211 0.20258 11494 ft 300 kts 315°
2026-05-04 15:19 51.25207 0.15644 10683 ft 296 kts 315°
2026-05-04 15:20 51.26681 0.13372 10179 ft 294 kts 315°
2026-05-04 15:20 51.28154 0.11097 9686 ft 292 kts 315°
2026-05-04 15:20 51.29610 0.08849 9310 ft 287 kts 315°
2026-05-04 15:20 51.31007 0.06693 9183 ft 273 kts 315°
2026-05-04 15:21 51.32249 0.04512 9053 ft 259 kts 303°
2026-05-04 15:21 51.32999 0.01953 8822 ft 252 kts 285°
2026-05-04 15:21 51.33304 -0.03523 8278 ft 248 kts 272°
2026-05-04 15:22 51.33392 -0.06265 7909 ft 247 kts 272°
2026-05-04 15:22 51.33480 -0.08998 7631 ft 242 kts 272°
2026-05-04 15:22 51.33641 -0.14107 7375 ft 218 kts 273°
2026-05-04 15:23 51.33717 -0.16474 7254 ft 209 kts 273°
2026-05-04 15:23 51.33790 -0.18744 7070 ft 201 kts 273°
2026-05-04 15:23 51.33899 -0.20967 6684 ft 200 kts 281°
2026-05-04 15:23 51.34619 -0.22820 6310 ft 199 kts 321°
2026-05-04 15:24 51.37149 -0.22925 5583 ft 196 kts 36°
2026-05-04 15:24 51.37993 -0.19035 4882 ft 194 kts 92°
2026-05-04 15:25 51.37955 -0.16890 4525 ft 193 kts 91°
2026-05-04 15:25 51.37926 -0.14748 4180 ft 192 kts 91°
2026-05-04 15:25 51.37899 -0.12619 3837 ft 191 kts 91°
2026-05-04 15:26 51.37857 -0.08402 3164 ft 188 kts 86°
2026-05-04 15:26 51.38147 -0.06390 3005 ft 185 kts 68°
2026-05-04 15:26 51.39713 -0.03180 3006 ft 185 kts 35°
2026-05-04 15:27 51.40860 -0.02257 3004 ft 186 kts 18°
2026-05-04 15:27 51.43404 -0.02147 3008 ft 186 kts 345°
2026-05-04 15:28 51.45547 -0.04320 3006 ft 187 kts 312°
2026-05-04 15:28 51.46237 -0.06088 3007 ft 188 kts 294°
2026-05-04 15:28 51.46530 -0.10235 3009 ft 189 kts 271°
2026-05-04 15:29 51.46533 -0.12349 3006 ft 189 kts 271°
2026-05-04 15:30 51.46531 -0.20792 2798 ft 189 kts 270°
2026-05-04 15:30 51.46525 -0.27081 2086 ft 186 kts 271°
2026-05-04 15:31 51.46519 -0.30985 1625 ft 168 kts 271°
2026-05-04 15:31 51.46516 -0.32843 1413 ft 163 kts 271°
2026-05-04 15:32 51.46508 -0.37049 896 ft 131 kts 271°
2026-05-04 15:32 51.46504 -0.39930 564 ft 128 kts 271°
2026-05-04 15:33 51.46507 -0.42764 241 ft 127 kts 270°
2026-05-04 15:34 51.46503 -0.46118 90 ft 36 kts 269°
2026-05-04 15:34 51.46510 -0.46530 89 ft 36 kts 281°
2026-05-04 15:34 51.46624 -0.46867 90 ft 11 kts 333°
2026-05-04 15:35 51.46659 -0.47159 90 ft 17 kts 270°
2026-05-04 15:35 51.46657 -0.47369 90 ft 21 kts 269°
2026-05-04 15:35 51.46655 -0.47615 86 ft 23 kts 269°
2026-05-04 15:36 51.46657 -0.48161 87 ft 25 kts 270°
2026-05-04 15:36 51.46656 -0.48427 88 ft 24 kts 269°
2026-05-04 15:36 51.46654 -0.48646 88 ft 16 kts 269°
2026-05-04 15:37 51.46733 -0.48749 88 ft 17 kts 358°
2026-05-04 15:37 51.46827 -0.48756 86 ft 12 kts 358°
2026-05-04 15:37 51.46847 -0.48686 86 ft 8 kts 152°
2026-05-04 15:37 51.46824 -0.48681 86 ft 0 kts 178°